• In Schweiz
  • Länderverzeichnis
  • Für 7 Tage
  • Wassertemperatur
  • Satellitenkarten
  • Wetterkarte
  • Widgets
  • user-avatar
    Anmelden

    Stündliche Wetter Malaya Kamenka

    Heute, 19 September, Mittwoch

    Zeit Temperatur Niederschläge Wind Luftdruck Luftfeuchtigkeit
    00:00 +15°C° 0 mm 2 m/S 747 mmHg 88%
    01:00 +14°C° 0 mm 2 m/S 747 mmHg 89%
    02:00 +14°C° 0 mm 2 m/S 747 mmHg 91%
    03:00 +14°C° 0 mm 2 m/S 747 mmHg 91%
    04:00 +13°C° 0 mm 2 m/S 747 mmHg 92%
    05:00 +13°C° 0 mm 2 m/S 747 mmHg 92%
    06:00 +14°C° 0 mm 2 m/S 747 mmHg 89%
    07:00 +16°C° 0 mm 3 m/S 747 mmHg 85%
    08:00 +17°C° 0 mm 3 m/S 747 mmHg 80%
    09:00 +19°C° 0 mm 3 m/S 747 mmHg 74%
    10:00 +20°C° 0 mm 4 m/S 747 mmHg 69%
    11:00 +22°C° 0 mm 4 m/S 747 mmHg 64%
    12:00 +23°C° 0 mm 4 m/S 747 mmHg 61%
    13:00 +25°C° 0 mm 5 m/S 747 mmHg 58%
    14:00 +27°C° 0 mm 4 m/S 746 mmHg 55%
    15:00 +26°C° 0 mm 4 m/S 746 mmHg 59%
    16:00 +25°C° 0 mm 4 m/S 746 mmHg 63%
    17:00 +24°C° 0 mm 3 m/S 746 mmHg 67%
    18:00 +22°C° 0 mm 3 m/S 746 mmHg 73%
    19:00 +20°C° 0 mm 3 m/S 746 mmHg 78%
    20:00 +19°C° 0 mm 3 m/S 746 mmHg 84%
    21:00 +18°C° 0 mm 3 m/S 746 mmHg 85%
    22:00 +18°C° 0 mm 3 m/S 746 mmHg 87%
    23:00 +17°C° 0 mm 3 m/S 746 mmHg 88%

    Morgen, 20 September, Donnerstag

    Zeit Temperatur Niederschläge Wind Luftdruck Luftfeuchtigkeit
    00:00 +17°C° 0 mm 2 m/S 746 mmHg 89%
    01:00 +17°C° 0 mm 2 m/S 746 mmHg 91%
    02:00 +16°C° 0 mm 2 m/S 746 mmHg 92%
    03:00 +16°C° 0 mm 2 m/S 746 mmHg 92%
    04:00 +16°C° 0 mm 2 m/S 747 mmHg 93%
    05:00 +15°C° 0 mm 2 m/S 747 mmHg 93%
    06:00 +16°C° 0 mm 2 m/S 747 mmHg 89%
    07:00 +17°C° 0 mm 2 m/S 747 mmHg 85%
    08:00 +18°C° 0 mm 2 m/S 747 mmHg 81%
    09:00 +20°C° 0 mm 2 m/S 748 mmHg 73%
    10:00 +23°C° 0 mm 2 m/S 748 mmHg 65%
    11:00 +24°C° 0 mm 2 m/S 748 mmHg 58%
    12:00 +25°C° 0 mm 2 m/S 748 mmHg 57%
    13:00 +26°C° 0 mm 3 m/S 748 mmHg 56%
    14:00 +27°C° 0 mm 3 m/S 747 mmHg 55%
    15:00 +26°C° 0 mm 2 m/S 747 mmHg 59%
    16:00 +25°C° 0 mm 2 m/S 747 mmHg 64%
    17:00 +25°C° 0 mm 2 m/S 747 mmHg 68%
    18:00 +23°C° 0 mm 2 m/S 747 mmHg 74%
    19:00 +22°C° 0 mm 1 m/S 747 mmHg 79%
    20:00 +20°C° 0 mm 1 m/S 747 mmHg 85%
    21:00 +20°C° 0 mm 1 m/S 747 mmHg 86%
    22:00 +19°C° 0 mm 1 m/S 747 mmHg 88%
    23:00 +19°C° 0 mm 1 m/S 747 mmHg 89%

    übermorgen, 21 September, Freitag

    Zeit Temperatur Niederschläge Wind Luftdruck Luftfeuchtigkeit
    00:00 +19°C° 0 mm 1 m/S 747 mmHg 90%
    01:00 +19°C° 0 mm 1 m/S 747 mmHg 90%
    02:00 +18°C° 0 mm 1 m/S 747 mmHg 91%
    03:00 +18°C° 0 mm 1 m/S 747 mmHg 91%
    04:00 +17°C° 0 mm 2 m/S 747 mmHg 91%
    05:00 +17°C° 0 mm 2 m/S 747 mmHg 92%
    06:00 +18°C° 0 mm 2 m/S 747 mmHg 88%
    07:00 +18°C° 0 mm 2 m/S 747 mmHg 84%
    08:00 +19°C° 0 mm 2 m/S 748 mmHg 80%
    09:00 +21°C° 0 mm 3 m/S 747 mmHg 73%
    10:00 +22°C° 0 mm 3 m/S 747 mmHg 66%
    11:00 +25°C° 0 mm 3 m/S 747 mmHg 60%
    12:00 +26°C° 0 mm 4 m/S 747 mmHg 56%
    13:00 +26°C° 0 mm 4 m/S 747 mmHg 53%
    14:00 +27°C° 0 mm 4 m/S 746 mmHg 49%
    15:00 +26°C° 0 mm 4 m/S 746 mmHg 53%
    16:00 +25°C° 0 mm 3 m/S 746 mmHg 56%
    17:00 +24°C° 0 mm 3 m/S 745 mmHg 59%
    18:00 +22°C° 0 mm 3 m/S 745 mmHg 62%
    19:00 +20°C° 0 mm 3 m/S 745 mmHg 65%
    20:00 +19°C° 0 mm 4 m/S 744 mmHg 68%
    21:00 +19°C° 0 mm 4 m/S 744 mmHg 67%
    22:00 +19°C° 0 mm 4 m/S 744 mmHg 67%
    23:00 +19°C° 0 mm 5 m/S 744 mmHg 67%

    22 September, Samstag

    Zeit Temperatur Niederschläge Wind Luftdruck Luftfeuchtigkeit
    00:00 +19°C° 0 mm 5 m/S 743 mmHg 68%
    01:00 +17°C° 0 mm 5 m/S 742 mmHg 70%
    02:00 +17°C° 0 mm 5 m/S 742 mmHg 71%
    03:00 +17°C° 0 mm 5 m/S 742 mmHg 71%
    04:00 +16°C° 0 mm 5 m/S 741 mmHg 72%
    05:00 +16°C° 0 mm 5 m/S 741 mmHg 72%
    06:00 +16°C° 0 mm 5 m/S 741 mmHg 73%
    07:00 +16°C° 0 mm 5 m/S 741 mmHg 74%
    08:00 +17°C° 0 mm 5 m/S 742 mmHg 74%
    09:00 +16°C° 0.6 mm 5 m/S 742 mmHg 77%
    10:00 +15°C° 0.6 mm 4 m/S 742 mmHg 80%
    11:00 +15°C° 0.6 mm 4 m/S 742 mmHg 83%
    12:00 +14°C° 0.5 mm 4 m/S 743 mmHg 82%
    13:00 +14°C° 0.5 mm 4 m/S 743 mmHg 80%
    14:00 +14°C° 0.5 mm 4 m/S 743 mmHg 78%
    15:00 +13°C° 0.1 mm 4 m/S 743 mmHg 78%
    16:00 +13°C° 0.1 mm 4 m/S 743 mmHg 78%
    17:00 +12°C° 0.1 mm 3 m/S 743 mmHg 78%
    18:00 +12°C° 0.2 mm 4 m/S 743 mmHg 80%
    19:00 +11°C° 0.2 mm 4 m/S 744 mmHg 81%
    20:00 +11°C° 0.2 mm 4 m/S 744 mmHg 83%
    21:00 +10°C° 0.1 mm 4 m/S 744 mmHg 84%
    22:00 +10°C° 0.1 mm 4 m/S 744 mmHg 85%
    23:00 +8°C° 0.1 mm 4 m/S 744 mmHg 87%

    23 September, Sonntag

    Zeit Temperatur Niederschläge Wind Luftdruck Luftfeuchtigkeit
    00:00 +9°C° 0 mm 3 m/S 743 mmHg 89%
    01:00 +8°C° 0 mm 3 m/S 743 mmHg 91%
    02:00 +8°C° 0 mm 2 m/S 743 mmHg 93%
    03:00 +7°C° 0 mm 3 m/S 743 mmHg 92%
    04:00 +7°C° 0 mm 3 m/S 742 mmHg 92%
    05:00 +7°C° 0 mm 3 m/S 742 mmHg 92%
    06:00 +8°C° 0 mm 3 m/S 742 mmHg 89%
    07:00 +7°C° 0 mm 4 m/S 742 mmHg 85%
    08:00 +8°C° 0 mm 4 m/S 742 mmHg 82%
    09:00 +10°C° 0 mm 5 m/S 742 mmHg 76%
    10:00 +12°C° 0 mm 5 m/S 742 mmHg 69%
    11:00 +13°C° 0 mm 6 m/S 742 mmHg 63%
    12:00 +14°C° 0.1 mm 6 m/S 742 mmHg 61%
    13:00 +14°C° 0.1 mm 6 m/S 742 mmHg 59%
    14:00 +14°C° 0.1 mm 7 m/S 742 mmHg 57%
    15:00 +14°C° 0 mm 6 m/S 742 mmHg 59%
    16:00 +13°C° 0 mm 5 m/S 742 mmHg 61%
    17:00 +13°C° 0 mm 4 m/S 742 mmHg 63%
    18:00 +12°C° 0 mm 4 m/S 742 mmHg 67%
    19:00 +11°C° 0 mm 4 m/S 742 mmHg 70%
    20:00 +9°C° 0 mm 3 m/S 742 mmHg 74%
    21:00 +9°C° 0 mm 3 m/S 742 mmHg 75%
    22:00 +8°C° 0 mm 3 m/S 742 mmHg 77%
    23:00 +8°C° 0 mm 2 m/S 742 mmHg 78%

    24 September, Montag

    Zeit Temperatur Niederschläge Wind Luftdruck Luftfeuchtigkeit
    00:00 +8°C° 0 mm 2 m/S 741 mmHg 77%
    01:00 +8°C° 0 mm 2 m/S 741 mmHg 77%
    02:00 +7°C° 0 mm 2 m/S 740 mmHg 76%
    03:00 +8°C° 0 mm 3 m/S 740 mmHg 75%
    04:00 +8°C° 0 mm 3 m/S 739 mmHg 73%
    05:00 +7°C° 0 mm 4 m/S 738 mmHg 72%
    06:00 +7°C° 0.2 mm 5 m/S 737 mmHg 76%
    07:00 +8°C° 0.2 mm 5 m/S 736 mmHg 80%
    08:00 +8°C° 0.2 mm 6 m/S 735 mmHg 85%
    09:00 +8°C° 1.8 mm 7 m/S 734 mmHg 86%
    10:00 +8°C° 1.8 mm 7 m/S 733 mmHg 88%
    11:00 +7°C° 1.8 mm 8 m/S 732 mmHg 89%
    12:00 +7°C° 1.7 mm 8 m/S 731 mmHg 90%
    13:00 +8°C° 1.7 mm 7 m/S 729 mmHg 91%
    14:00 +9°C° 1.7 mm 7 m/S 728 mmHg 92%
    15:00 +9°C° 1.7 mm 7 m/S 727 mmHg 92%
    16:00 +10°C° 1.7 mm 6 m/S 726 mmHg 93%
    17:00 +10°C° 1.7 mm 5 m/S 725 mmHg 94%
    18:00 +12°C° 0.8 mm 5 m/S 724 mmHg 93%
    19:00 +12°C° 0.8 mm 5 m/S 723 mmHg 93%
    20:00 +12°C° 0.8 mm 5 m/S 722 mmHg 93%
    21:00 +10°C° 0.7 mm 5 m/S 722 mmHg 92%
    22:00 +10°C° 0.7 mm 5 m/S 721 mmHg 92%
    23:00 +9°C° 0.7 mm 5 m/S 721 mmHg 92%
    Mehr zeigen